Regional Weather Roundup
Issued by NWS

Home | Current Version | Previous Version | Graphics & Text | Print | Product List | Glossary On
Versions: 1 2 3 4 5 6 7 8 9 10 11 12 13 14 15 16 17 18 19 20 21 22 23 24 25 26 27 28 29 30 31 32 33 34 35 36 37 38 39 40 41 42 43 44 45 46 47 48 49 50
000
ASUS45 KSLC 291610
RWRUT

UTAH REGIONAL WEATHER ROUNDUP
NATIONAL WEATHER SERVICE SALT LAKE CITY UT
1000 AM MDT MON JUN 29 2015

UTZ001>011-023>025-291700-

NORTHERN UTAH

CITY           SKY/WX    TMP DP  RH WIND       PRES   REMARKS
BRIGHAM CITY   SUNNY     85  41  20 CALM      30.10S
HILL AFB       SUNNY     82  50  32 E15G23    30.13S
LOGAN          SUNNY     84  47  27 CALM      30.13S
OGDEN          SUNNY     88  47  24 E9        30.10R
PROVO AIRPORT  MOSUNNY   84  55  37 CALM      30.13S
SALT LAKE CITY MOSUNNY   91  48  22 SE7       30.07S
VERNAL         SUNNY     85  43  22 SE8       30.21F
WENDOVER       SUNNY     88  43  20 SE6       30.08R
HEBER CITY     SUNNY     75  43  31 CALM      30.24F
WEST JORDAN    SUNNY     88  48  25 SE14      30.12S

$$

UTZ012>022-026-027-291700-

SOUTHERN/CENTRAL UTAH

CITY           SKY/WX    TMP DP  RH WIND       PRES   REMARKS
BLANDING       SUNNY     79  44  29 S6        30.34S
BRYCE CANYON   SUNNY     79  46  31 CALM      30.39F
CEDAR CITY     SUNNY     85  45  24 SW6       30.22S
DELTA          SUNNY     87  42  20 SW10      30.13S
HANKSVILLE     SUNNY     90  41  18 E3        30.13S
MILFORD        SUNNY     87  46  24 S17       30.15S
MOAB/CYNLANDS  SUNNY     89  44  20 E8        30.11S
PRICE          SUNNY     87  40  19 VRB5      30.24S
ST GEORGE      SUNNY     90  48  24 CALM      30.04F
KANAB          SUNNY     82  50  32 CALM      30.24F

$$

REGIONAL REPORTS     COLORADO/ARIZONA

CITY           SKY/WX    TMP DP  RH WIND       PRES   REMARKS
CRAIG, CO      SUNNY     77  48  35 VRB5      30.30F
GRAND JUNCTION SUNNY     85  46  25 SE12      30.17F
RIFLE          SUNNY     80  46  30 N6        30.24F
MONTROSE       SUNNY     82  46  28 SE5       30.27F
CORTEZ         SUNNY     82  47  29 SE5       30.27F
PAGE, AZ       SUNNY     88  47  24 VRB5      30.12S
GRAND CANYON   SUNNY     81  45  28 N7        30.33S
KINGMAN        SUNNY     93  49  22 SW9       30.08S HX  90
FLAGSTAFF      SUNNY     79  47  32 NE3       30.36S

$$

REGIONAL REPORTS    NEVADA/IDAHO/WYOMING

CITY           SKY/WX    TMP DP  RH WIND       PRES   REMARKS
LAS VEGAS, NV  MOSUNNY   95  47  19 S6        29.92S HX  91
ELY            SUNNY     81  38  21 SE5       30.28S
ELKO           SUNNY     84  47  27 S6        30.17F
POCATELLO, ID  SUNNY     86  51  29 NE7       30.12S
BURLEY         SUNNY     80  56  43 E5        30.08S
EVANSTON, WY   SUNNY     75  44  33 E12       30.37S
ROCK SPRINGS   SUNNY     76  47  35 NE10      30.36F
KEMMERER       SUNNY     75  41  29 E12G18    30.41R

$$



USA.gov is the U.S. government's official web portal to all federal, state and local government web resources and services.